FLT555 VNKT-VNLK

Flight info

Callsign FLT555
Flight time 0h 32m
Altitude 150
Route KIMTI DST VNKL
Aircraft C408/L-VGD/C

Departure

Time 2026-04-30 01:44
Airport Tribhuvan International Airport (VNKT)

Arrival

Time 2026-04-30 02:17
Airport Tenzing-Hillary Airport (VNLK)
Time Latitude Longitude Altitude Speed Heading
2026-04-30 01:28 27.70179 85.35947 4364 ft 0 kts 293°
2026-04-30 01:39 27.70169 85.35930 4360 ft 6 kts 176°
2026-04-30 01:40 27.70144 85.35979 4375 ft 9 kts 94°
2026-04-30 01:40 27.70183 85.36032 4376 ft 9 kts 20°
2026-04-30 01:40 27.70247 85.36061 4378 ft 10 kts 24°
2026-04-30 01:40 27.70318 85.36095 4372 ft 12 kts 21°
2026-04-30 01:41 27.70398 85.36131 4382 ft 13 kts 22°
2026-04-30 01:41 27.70484 85.36171 4384 ft 14 kts 22°
2026-04-30 01:41 27.70548 85.36203 4387 ft 10 kts 31°
2026-04-30 01:41 27.70573 85.36263 4389 ft 7 kts 99°
2026-04-30 01:42 27.70548 85.36300 4389 ft 5 kts 152°
2026-04-30 01:42 27.70515 85.36303 4389 ft 5 kts 200°
2026-04-30 01:42 27.70512 85.36301 4389 ft 0 kts 200°
2026-04-30 01:43 27.70507 85.36299 4389 ft 7 kts 200°
2026-04-30 01:43 27.70261 85.36190 4374 ft 70 kts 202°
2026-04-30 01:43 27.69634 85.35904 4362 ft 121 kts 201°
2026-04-30 01:44 27.68753 85.35520 4469 ft 145 kts 199°
2026-04-30 01:44 27.67782 85.35100 4721 ft 151 kts 203°
2026-04-30 01:44 27.66858 85.34529 4998 ft 152 kts 223°
2026-04-30 01:44 27.66420 85.33447 5287 ft 156 kts 262°
2026-04-30 01:45 27.66559 85.32239 5589 ft 159 kts 278°
2026-04-30 01:45 27.66767 85.30993 5865 ft 164 kts 279°
2026-04-30 01:45 27.67005 85.29710 6132 ft 169 kts 287°
2026-04-30 01:45 27.67666 85.28611 6400 ft 173 kts 318°
2026-04-30 01:46 27.68720 85.27976 6654 ft 173 kts 348°
2026-04-30 01:46 27.69918 85.27971 6903 ft 173 kts 16°
2026-04-30 01:46 27.70967 85.28549 7170 ft 169 kts 35°
2026-04-30 01:46 27.71894 85.29358 7436 ft 168 kts 45°
2026-04-30 01:47 27.72677 85.30338 7707 ft 169 kts 54°
2026-04-30 01:47 27.73302 85.31472 7995 ft 171 kts 64°
2026-04-30 01:47 27.73744 85.32726 8268 ft 173 kts 75°
2026-04-30 01:47 27.73979 85.34056 8547 ft 173 kts 84°
2026-04-30 01:48 27.73999 85.35425 8824 ft 176 kts 95°
2026-04-30 01:48 27.73797 85.36780 9102 ft 175 kts 105°
2026-04-30 01:48 27.73384 85.38063 9376 ft 176 kts 115°
2026-04-30 01:48 27.72765 85.39251 9650 ft 175 kts 125°
2026-04-30 01:49 27.71973 85.40282 9928 ft 174 kts 135°
2026-04-30 01:49 27.71029 85.41135 10183 ft 173 kts 145°
2026-04-30 01:49 27.69968 85.41779 10435 ft 173 kts 155°
2026-04-30 01:49 27.68829 85.42194 10686 ft 171 kts 167°
2026-04-30 01:50 27.67660 85.42404 10938 ft 169 kts 169°
2026-04-30 01:50 27.66586 85.42879 11175 ft 169 kts 151°
2026-04-30 01:50 27.65673 85.43719 11432 ft 171 kts 133°
2026-04-30 01:50 27.65033 85.44859 11693 ft 173 kts 115°
2026-04-30 01:51 27.64693 85.46170 11957 ft 175 kts 106°
2026-04-30 01:51 27.64374 85.47501 12232 ft 176 kts 107°
2026-04-30 01:51 27.64054 85.48840 12500 ft 177 kts 107°
2026-04-30 01:51 27.63736 85.50186 12773 ft 178 kts 106°
2026-04-30 01:52 27.63420 85.51520 13050 ft 179 kts 106°
2026-04-30 01:52 27.63096 85.52892 13334 ft 183 kts 107°
2026-04-30 01:52 27.62764 85.54291 13623 ft 186 kts 107°
2026-04-30 01:52 27.62420 85.55716 13931 ft 188 kts 109°
2026-04-30 01:53 27.62074 85.57141 14174 ft 190 kts 104°
2026-04-30 01:53 27.61757 85.58598 14425 ft 192 kts 108°
2026-04-30 01:53 27.61406 85.60042 14666 ft 189 kts 107°
2026-04-30 01:53 27.61067 85.61451 14903 ft 188 kts 107°
2026-04-30 01:54 27.60832 85.62934 14980 ft 198 kts 95°
2026-04-30 01:54 27.60761 85.64522 14991 ft 207 kts 95°
2026-04-30 01:54 27.60670 85.66161 14992 ft 212 kts 95°
2026-04-30 01:54 27.60574 85.67834 14993 ft 215 kts 95°
2026-04-30 01:55 27.60478 85.69531 14983 ft 217 kts 95°
2026-04-30 01:55 27.60382 85.71222 14989 ft 216 kts 96°
2026-04-30 01:55 27.60118 85.72887 14982 ft 217 kts 105°
2026-04-30 01:55 27.59789 85.74547 14993 ft 216 kts 104°
2026-04-30 01:56 27.59475 85.76187 14995 ft 217 kts 104°
2026-04-30 01:56 27.59156 85.77856 14993 ft 217 kts 104°
2026-04-30 01:56 27.58837 85.79520 14994 ft 217 kts 104°
2026-04-30 01:56 27.58517 85.81181 14992 ft 217 kts 104°
2026-04-30 01:57 27.58305 85.82282 14993 ft 217 kts 104°
2026-04-30 01:57 27.57984 85.83947 14993 ft 217 kts 104°
2026-04-30 01:57 27.57664 85.85614 14994 ft 217 kts 104°
2026-04-30 01:57 27.57237 85.87828 14992 ft 218 kts 104°
2026-04-30 01:58 27.57019 85.88959 15000 ft 218 kts 104°
2026-04-30 01:58 27.56699 85.90611 14998 ft 218 kts 104°
2026-04-30 01:58 27.56377 85.92285 14998 ft 218 kts 104°
2026-04-30 01:58 27.56056 85.93950 14996 ft 217 kts 104°
2026-04-30 01:59 27.55414 85.97263 14997 ft 216 kts 104°
2026-04-30 01:59 27.55092 85.98926 14994 ft 217 kts 104°
2026-04-30 01:59 27.54775 86.00561 14988 ft 215 kts 104°
2026-04-30 02:00 27.54456 86.02209 14990 ft 215 kts 105°
2026-04-30 02:00 27.54137 86.03856 14988 ft 215 kts 104°
2026-04-30 02:00 27.53817 86.05501 14962 ft 215 kts 104°
2026-04-30 02:00 27.53496 86.07151 14964 ft 216 kts 104°
2026-04-30 02:01 27.53173 86.08810 14967 ft 217 kts 104°
2026-04-30 02:01 27.52850 86.10473 14967 ft 217 kts 104°
2026-04-30 02:01 27.52527 86.12135 14969 ft 218 kts 104°
2026-04-30 02:01 27.52206 86.13780 14966 ft 217 kts 104°
2026-04-30 02:02 27.51884 86.15436 14967 ft 216 kts 104°
2026-04-30 02:02 27.51560 86.17093 14968 ft 217 kts 104°
2026-04-30 02:02 27.51236 86.18753 14976 ft 217 kts 103°
2026-04-30 02:02 27.50914 86.20405 14977 ft 216 kts 103°
2026-04-30 02:03 27.50590 86.22059 14977 ft 216 kts 103°
2026-04-30 02:03 27.50267 86.23711 14975 ft 215 kts 103°
2026-04-30 02:03 27.49945 86.25357 14975 ft 215 kts 103°
2026-04-30 02:03 27.49622 86.26978 14973 ft 214 kts 105°
2026-04-30 02:04 27.49237 86.28596 14979 ft 214 kts 105°
2026-04-30 02:04 27.48883 86.30224 14974 ft 214 kts 104°
2026-04-30 02:04 27.48521 86.31855 14975 ft 214 kts 105°
2026-04-30 02:04 27.48152 86.33484 14976 ft 215 kts 105°
2026-04-30 02:05 27.47782 86.35113 14994 ft 215 kts 105°
2026-04-30 02:05 27.47413 86.36742 14991 ft 214 kts 105°
2026-04-30 02:05 27.47045 86.38366 14991 ft 213 kts 105°
2026-04-30 02:05 27.46677 86.39987 14993 ft 214 kts 105°
2026-04-30 02:06 27.46314 86.41590 14991 ft 213 kts 105°
2026-04-30 02:06 27.45946 86.43208 14993 ft 214 kts 105°
2026-04-30 02:06 27.45578 86.44831 14992 ft 212 kts 105°
2026-04-30 02:06 27.45239 86.46326 14983 ft 186 kts 105°
2026-04-30 02:07 27.44929 86.47692 14987 ft 175 kts 105°
2026-04-30 02:07 27.44625 86.49027 14867 ft 175 kts 105°
2026-04-30 02:07 27.44333 86.50309 14670 ft 165 kts 105°
2026-04-30 02:07 27.44047 86.51549 14499 ft 167 kts 105°
2026-04-30 02:08 27.43762 86.52818 14327 ft 167 kts 105°
2026-04-30 02:08 27.43472 86.54090 14139 ft 168 kts 105°
2026-04-30 02:08 27.43180 86.55366 13890 ft 169 kts 105°
2026-04-30 02:08 27.42884 86.56664 13647 ft 172 kts 106°
2026-04-30 02:09 27.42585 86.57975 13428 ft 173 kts 104°
2026-04-30 02:09 27.42285 86.59286 13201 ft 173 kts 104°
2026-04-30 02:09 27.41987 86.60593 12975 ft 172 kts 105°
2026-04-30 02:09 27.41695 86.61875 12749 ft 169 kts 104°
2026-04-30 02:10 27.41673 86.63185 12550 ft 168 kts 76°
2026-04-30 02:10 27.42152 86.64367 12375 ft 166 kts 51°
2026-04-30 02:10 27.43015 86.65188 12242 ft 161 kts 26°
2026-04-30 02:10 27.44068 86.65572 12153 ft 158 kts 14°
2026-04-30 02:11 27.45129 86.65901 12027 ft 157 kts 15°
2026-04-30 02:11 27.46187 86.66225 11900 ft 157 kts 15°
2026-04-30 02:11 27.47232 86.66544 11780 ft 157 kts 15°
2026-04-30 02:11 27.48297 86.66812 11657 ft 156 kts
2026-04-30 02:12 27.49376 86.66991 11538 ft 156 kts
2026-04-30 02:12 27.50455 86.67166 11418 ft 157 kts
2026-04-30 02:12 27.51534 86.67341 11299 ft 156 kts
2026-04-30 02:12 27.52607 86.67516 11187 ft 155 kts
2026-04-30 02:13 27.53655 86.67686 11070 ft 153 kts
2026-04-30 02:13 27.54710 86.67856 10949 ft 152 kts
2026-04-30 02:13 27.55760 86.68025 10872 ft 151 kts
2026-04-30 02:13 27.56806 86.68193 10755 ft 152 kts
2026-04-30 02:14 27.57842 86.68359 10635 ft 152 kts
2026-04-30 02:14 27.58886 86.68527 10520 ft 152 kts
2026-04-30 02:14 27.59929 86.68693 10407 ft 151 kts
2026-04-30 02:14 27.60970 86.68861 10281 ft 151 kts
2026-04-30 02:15 27.62015 86.69029 10170 ft 152 kts
2026-04-30 02:15 27.63057 86.69207 10061 ft 151 kts 10°
2026-04-30 02:15 27.64096 86.69413 9977 ft 149 kts 10°
2026-04-30 02:15 27.65105 86.69612 9966 ft 145 kts 10°
2026-04-30 02:16 27.66094 86.69819 9918 ft 145 kts 14°
2026-04-30 02:16 27.66989 86.70254 9962 ft 136 kts 37°
2026-04-30 02:16 27.67605 86.71017 9643 ft 127 kts 53°
2026-04-30 02:16 27.68117 86.71814 9322 ft 123 kts 59°
2026-04-30 02:17 27.68513 86.72628 9201 ft 111 kts 62°
2026-04-30 02:17 27.68761 86.73106 9421 ft 19 kts 58°
2026-04-30 02:17 27.68780 86.73160 9425 ft 0 kts 123°
2026-04-30 02:17 27.68778 86.73162 9425 ft 3 kts 129°
2026-04-30 02:18 27.68756 86.73180 9425 ft 1 kts 146°
2026-04-30 02:18 27.68742 86.73178 9425 ft 2 kts 230°
2026-04-30 02:18 27.68736 86.73161 9425 ft 1 kts 282°
2026-04-30 02:18 27.68740 86.73155 9426 ft 1 kts 319°
2026-04-30 02:19 27.68746 86.73153 9425 ft 1 kts
2026-04-30 02:19 27.68749 86.73154 9425 ft 0 kts 20°